sat.trackr.live / text

‹ back to catalog

STARLINK-2581

NORAD 48412 · 2021-038BM

PAYLOAD ACTIVE UNKNOWN

§ Identity

Operator
Country
US
Launch date
2021-05-04
Launch site
AFETR
Launch vehicle
Mass (kg)
RCS (m²)

Purposes: comms

External: N2YO · Heavens-Above · Gunter

§ Orbital elements

Epoch: 2026-05-24T19:28:19.509888Z

Period
94.01 min
Inclination
53.1580°
Eccentricity
0.0000798
Mean motion
15.31702545 rev/d
Perigee alt
470.2 km
Apogee alt
471.3 km
Semi-major
6,848.9 km
B*
7.9427e-5
RAAN
302.4158°
Arg perigee
94.7917°
Mean anomaly
265.3176°
Rev number
27,960

§ Raw data

STARLINK-25811 48412U 21038BM  26144.81133692  .00002101  00000+0  79427-4 0  99992 48412  53.1580 302.4158 0000798  94.7917 265.3176 15.31702545279604

JSON: /api/v1/satellites/48412 · /tle

For live sub-satellite position, see the globe view (requires WebGL).

§ Visibility from observer

Set your observer location to see the next 7 days of passes ≥ 10°. The values pass through the URL so the page stays shareable.

No JS? Fill the form by hand. The geolocation button needs JavaScript.